sat.trackr.live / text

‹ back to catalog

STARLINK-32399

NORAD 61627 · 2024-191G

PAYLOAD ACTIVE UNKNOWN

§ Identity

Operator
Country
US
Launch date
2024-10-23
Launch site
AFETR
Launch vehicle
Mass (kg)
RCS (m²)

Purposes: comms

External: N2YO · Heavens-Above · Gunter

§ Orbital elements

Epoch: 2026-09-21T15:53:27.468672Z

Period
94.27 min
Inclination
43.0025°
Eccentricity
0.0001510
Mean motion
15.27573683 rev/d
Perigee alt
482.0 km
Apogee alt
484.1 km
Semi-major
6,861.2 km
B*
4.3633e-6
RAAN
120.3280°
Arg perigee
270.0970°
Mean anomaly
89.9709°
Rev number
10,759

§ Raw data

STARLINK-323991 61627U 24191G   26264.66212348 -.00000142  00000+0  43633-5 0  99922 61627  43.0025 120.3280 0001510 270.0970  89.9709 15.27573683107597

JSON: /api/v1/satellites/61627 · /tle

For live sub-satellite position, see the globe view (requires WebGL).

§ Visibility from observer

Set your observer location to see the next 7 days of passes ≥ 10°. The values pass through the URL so the page stays shareable.

No JS? Fill the form by hand. The geolocation button needs JavaScript.